Weather History for PAGY - November, 2013

Change the Weather History Date:

Tuesday, November 12, 2013

  Actual Average Record
Temperature  
Mean Temperature 38 °F -  
Max Temperature 42 °F 37 °F 48 °F (1970)
Min Temperature 34 °F 30 °F 1 °F (1989)
Degree Days  
Heating Degree Days 26    
Moisture  
Dew Point 21 °F    
Average Humidity 50    
Maximum Humidity 57    
Minimum Humidity 44    
Precipitation  
Precipitation 0.00 in - - ()
Sea Level Pressure  
Sea Level Pressure 29.94 in    
Wind  
Wind Speed 8 mph (NNE)    
Max Wind Speed 18 mph    
Max Gust Speed 26 mph    
Visibility 10 miles    
Events Snow    
Averages and records for this station are not official NWS values.
T = Trace of Precipitation, MM = Missing Value Source: NWS Daily Summary

Daily Weather History Graph

Daily Weather History Graph

Search for Another Location

Airport or City:

Trip Planner

Search our weather history database for the weather conditions in past years. The results will help you decide how hot, cold, wet, or windy it might be!

Date:

Astronomy

Nov. 12, 2013 Rise Set
Actual Time 7:49 AM AKST 3:40 PM AKST
Civil Twilight 7:02 AM AKST 4:27 PM AKST
Nautical Twilight 6:12 AM AKST 5:18 PM AKST
Astronomical Twilight 5:23 AM AKST 6:05 PM AKST
Moon 2:01 PM AKST (11/12) 1:37 AM AKST (11/12)
Length of Visible Light 9h 25m
Length of Day
7h 50m
Waxing Gibbous, 77% of the Moon is Illuminated
Nov 12
Waxing Gibbous
Nov 17
Full
Nov 25
Last Quarter
Dec 2
New
Dec 9
First Quarter

Hourly Weather History & Observations

Time (AKST) Temp. Windchill Dew Point Humidity Pressure Visibility Wind Dir Wind Speed Gust Speed Precip Events Conditions
12:53 AM 42.1 °F 38.4 °F 27.0 °F 55% 29.86 in 10.0 mi North 5.8 mph - N/A   Overcast
1:53 AM 41.0 °F 37.1 °F 26.1 °F 55% 29.86 in 10.0 mi Variable 5.8 mph - N/A   Overcast
2:53 AM 42.1 °F 35.7 °F 27.0 °F 55% 29.85 in 10.0 mi North 11.5 mph 26.5 mph N/A   Overcast
3:53 AM 41.0 °F - 27.0 °F 57% 29.86 in 10.0 mi Calm Calm - N/A   Overcast
4:53 AM 41.0 °F 34.3 °F 25.0 °F 53% 29.85 in 10.0 mi North 11.5 mph 20.7 mph N/A   Overcast
5:53 AM 39.9 °F 30.8 °F 24.1 °F 53% 29.84 in 10.0 mi NNE 18.4 mph 26.5 mph N/A   Overcast
6:53 AM 39.0 °F 32.8 °F 24.1 °F 55% 29.86 in 10.0 mi NNE 9.2 mph - N/A   Overcast
7:53 AM 39.0 °F 33.4 °F 21.0 °F 49% 29.87 in 10.0 mi NNE 8.1 mph 23.0 mph N/A   Overcast
8:53 AM 39.0 °F 35.7 °F 21.0 °F 49% 29.89 in 10.0 mi NNE 4.6 mph - N/A   Overcast
9:53 AM 39.0 °F 32.8 °F 21.0 °F 49% 29.89 in 10.0 mi North 9.2 mph 17.3 mph N/A   Overcast
10:53 AM 39.9 °F 37.8 °F 19.9 °F 45% 29.91 in 10.0 mi Variable 3.5 mph - N/A   Overcast
11:53 AM 39.0 °F 34.0 °F 19.9 °F 46% 29.92 in 10.0 mi Variable 6.9 mph - N/A   Overcast
12:53 PM 39.0 °F 32.3 °F 19.9 °F 46% 29.92 in 10.0 mi North 10.4 mph 19.6 mph N/A   Overcast
1:53 PM 39.0 °F 32.8 °F 19.0 °F 45% 29.95 in 10.0 mi North 9.2 mph 24.2 mph N/A   Overcast
2:53 PM 37.9 °F 30.9 °F 19.0 °F 47% 29.96 in 10.0 mi NNE 10.4 mph - N/A   Overcast
3:53 PM 37.9 °F 33.5 °F 19.9 °F 48% 29.98 in 9.0 mi NNE 5.8 mph - 0.00 in Snow Light Snow
4:53 PM 37.0 °F 29.8 °F 19.9 °F 50% 29.99 in 10.0 mi NNE 10.4 mph 19.6 mph 0.00 in   Overcast
5:53 PM 37.0 °F 28.9 °F 19.0 °F 48% 30.00 in 10.0 mi NNE 12.7 mph 18.4 mph N/A   Overcast
6:53 PM 37.0 °F 29.8 °F 18.0 °F 46% 30.02 in 10.0 mi NNE 10.4 mph - N/A   Overcast
7:53 PM 37.0 °F 29.8 °F 17.1 °F 44% 30.02 in 10.0 mi NNE 10.4 mph - N/A   Overcast
8:53 PM 37.0 °F 28.9 °F 17.1 °F 44% 30.04 in 10.0 mi NNE 12.7 mph 20.7 mph N/A   Overcast
9:53 PM 36.0 °F 28.5 °F 17.1 °F 46% 30.06 in 10.0 mi North 10.4 mph 21.9 mph 0.00 in   Overcast
10:53 PM 35.1 °F 29.3 °F 19.0 °F 52% 30.08 in 10.0 mi Variable 6.9 mph 18.4 mph N/A   Overcast
11:53 PM 34.0 °F 31.0 °F 19.9 °F 56% 30.10 in 8.0 mi Variable 3.5 mph - 0.00 in Snow Light Snow